User: anonymous   Login
Location: Unspecified
(0.0000°N, 0.0000°E)
Time: 14:11:44
(UTC+00:00)
Language:

RUBIN 2 - Orbit

View from above orbital plane
View from above orbital plane
View from above satellite
View from above satellite

Ground track
Ground track

The orbit data is extracted from the following two-line orbital elements,

1 27605U 02058A   18347.87493780 -.00000072 +00000-0 +10925-4 0  9995
2 27605 064.5553 244.2252 0080435 292.3565 066.9027 14.75018374859757
Epoch (UTC): 13 December 2018 20:59:54
Eccentricity: 0.0080435
inclination: 64.5553°
perigee height: 588 km
apogee height: 701 km
right ascension of ascending node: 244.2252°
argument of perigee: 292.3565°
revolutions per day: 14.75018374
mean anomaly at epoch: 66.9027°
orbit number at epoch: 85975

The dashed part of the orbit path shows where the satellite is in the earth's shadow,  

DLR